CGG60 KDSM-KDPA

Flight info

Callsign CGG60
Flight time 0h 42m
Altitude 35000
Route IOW PLANO
Aircraft C750/M-SBDE3FGHRWXY/S

Departure

Time 2026-05-07 20:22
Airport Des Moines International Airport (KDSM)

Arrival

Time 2026-05-07 21:05
Airport Dupage Airport (KDPA)
Time Latitude Longitude Altitude Speed Heading
2026-05-07 20:22 41.53317 -93.42095 6142 ft 277 kts 88°
2026-05-07 20:22 41.53416 -93.39512 6033 ft 285 kts 88°
2026-05-07 20:23 41.53429 -93.36776 6835 ft 293 kts 91°
2026-05-07 20:23 41.53395 -93.34075 7964 ft 298 kts 91°
2026-05-07 20:23 41.53387 -93.31259 8964 ft 308 kts 90°
2026-05-07 20:23 41.53396 -93.28357 9899 ft 316 kts 90°
2026-05-07 20:24 41.53394 -93.25348 10403 ft 336 kts 90°
2026-05-07 20:24 41.53383 -93.22102 10604 ft 364 kts 90°
2026-05-07 20:24 41.53372 -93.18619 10926 ft 382 kts 90°
2026-05-07 20:24 41.53363 -93.15080 11820 ft 382 kts 90°
2026-05-07 20:25 41.53354 -93.11509 12563 ft 387 kts 90°
2026-05-07 20:25 41.53342 -93.07950 13312 ft 390 kts 90°
2026-05-07 20:25 41.53327 -93.04310 14031 ft 395 kts 89°
2026-05-07 20:25 41.53313 -93.00611 14579 ft 402 kts 89°
2026-05-07 20:26 41.53298 -92.96855 15172 ft 408 kts 89°
2026-05-07 20:26 41.53280 -92.93036 15780 ft 413 kts 88°
2026-05-07 20:26 41.53261 -92.89172 16402 ft 419 kts 88°
2026-05-07 20:26 41.53240 -92.85255 17030 ft 425 kts 87°
2026-05-07 20:27 41.53218 -92.81281 17653 ft 431 kts 87°
2026-05-07 20:27 41.53195 -92.77242 18330 ft 437 kts 86°
2026-05-07 20:27 41.53168 -92.73159 18932 ft 442 kts 86°
2026-05-07 20:27 41.53140 -92.69023 19561 ft 447 kts 86°
2026-05-07 20:28 41.53111 -92.64847 20161 ft 453 kts 86°
2026-05-07 20:28 41.53081 -92.60614 20774 ft 459 kts 86°
2026-05-07 20:28 41.53047 -92.56334 21406 ft 464 kts 86°
2026-05-07 20:28 41.53011 -92.52010 22034 ft 468 kts 86°
2026-05-07 20:29 41.52974 -92.47628 22638 ft 474 kts 86°
2026-05-07 20:29 41.52936 -92.43218 23248 ft 479 kts 86°
2026-05-07 20:29 41.52893 -92.38751 23791 ft 484 kts 86°
2026-05-07 20:29 41.52849 -92.34244 24327 ft 487 kts 86°
2026-05-07 20:30 41.52802 -92.29740 24839 ft 486 kts 86°
2026-05-07 20:30 41.52758 -92.25212 24912 ft 502 kts 86°
2026-05-07 20:30 41.52711 -92.20512 24912 ft 510 kts 86°
2026-05-07 20:30 41.52653 -92.15758 24911 ft 512 kts 86°
2026-05-07 20:31 41.52592 -92.11000 24909 ft 513 kts 86°
2026-05-07 20:31 41.52536 -92.06228 24910 ft 514 kts 86°
2026-05-07 20:31 41.52480 -92.01473 24910 ft 514 kts 86°
2026-05-07 20:31 41.52418 -91.96684 24918 ft 514 kts 87°
2026-05-07 20:32 41.52351 -91.91915 24918 ft 514 kts 87°
2026-05-07 20:32 41.52286 -91.87115 24922 ft 520 kts 86°
2026-05-07 20:32 41.52221 -91.82368 24930 ft 518 kts 87°
2026-05-07 20:32 41.52149 -91.77561 24929 ft 518 kts 87°
2026-05-07 20:33 41.52076 -91.72746 24930 ft 518 kts 87°
2026-05-07 20:33 41.52002 -91.67943 24929 ft 518 kts 87°
2026-05-07 20:33 41.51927 -91.63128 24930 ft 518 kts 87°
2026-05-07 20:33 41.52015 -91.58354 24916 ft 514 kts 81°
2026-05-07 20:34 41.52248 -91.53581 24919 ft 515 kts 81°
2026-05-07 20:34 41.52459 -91.48795 24930 ft 519 kts 82°
2026-05-07 20:34 41.52647 -91.44000 24930 ft 517 kts 82°
2026-05-07 20:34 41.52845 -91.39206 24932 ft 517 kts 82°
2026-05-07 20:35 41.53063 -91.34357 24935 ft 531 kts 82°
2026-05-07 20:35 41.53282 -91.29373 24930 ft 545 kts 82°
2026-05-07 20:35 41.53481 -91.24291 24933 ft 551 kts 83°
2026-05-07 20:35 41.53675 -91.19242 24928 ft 553 kts 82°
2026-05-07 20:36 41.53888 -91.14042 24945 ft 554 kts 82°
2026-05-07 20:36 41.54105 -91.08883 24927 ft 557 kts 82°
2026-05-07 20:36 41.54304 -91.03778 24923 ft 557 kts 83°
2026-05-07 20:36 41.54499 -90.98599 24923 ft 558 kts 83°
2026-05-07 20:37 41.54697 -90.93430 24902 ft 558 kts 83°
2026-05-07 20:37 41.54889 -90.88376 24671 ft 528 kts 83°
2026-05-07 20:37 41.55060 -90.83613 24440 ft 499 kts 82°
2026-05-07 20:37 41.55235 -90.79055 24211 ft 492 kts 82°
2026-05-07 20:38 41.55419 -90.74470 24031 ft 494 kts 82°
2026-05-07 20:38 41.55585 -90.69896 23819 ft 493 kts 83°
2026-05-07 20:38 41.55740 -90.65323 23612 ft 493 kts 83°
2026-05-07 20:38 41.55901 -90.60761 23386 ft 491 kts 82°
2026-05-07 20:39 41.56068 -90.56219 23133 ft 488 kts 82°
2026-05-07 20:39 41.56226 -90.51718 22915 ft 481 kts 83°
2026-05-07 20:39 41.56375 -90.47277 22669 ft 477 kts 83°
2026-05-07 20:39 41.56524 -90.42915 22426 ft 475 kts 83°
2026-05-07 20:40 41.56676 -90.38512 22195 ft 473 kts 83°
2026-05-07 20:40 41.56821 -90.34135 21964 ft 470 kts 83°
2026-05-07 20:40 41.56963 -90.29786 21709 ft 467 kts 84°
2026-05-07 20:40 41.57105 -90.25456 21312 ft 468 kts 84°
2026-05-07 20:41 41.57245 -90.21138 20542 ft 462 kts 84°
2026-05-07 20:41 41.57378 -90.16899 19785 ft 452 kts 84°
2026-05-07 20:41 41.57508 -90.12754 19048 ft 442 kts 85°
2026-05-07 20:41 41.57635 -90.08704 18326 ft 432 kts 85°
2026-05-07 20:42 41.57758 -90.04738 17514 ft 424 kts 85°
2026-05-07 20:42 41.57877 -90.00829 16707 ft 419 kts 85°
2026-05-07 20:42 41.57993 -89.96965 15932 ft 413 kts 86°
2026-05-07 20:42 41.58107 -89.93152 15163 ft 409 kts 86°
2026-05-07 20:43 41.58219 -89.89374 14417 ft 405 kts 86°
2026-05-07 20:43 41.58328 -89.85629 13677 ft 402 kts 86°
2026-05-07 20:43 41.58434 -89.81918 12863 ft 398 kts 86°
2026-05-07 20:43 41.58538 -89.78249 12071 ft 393 kts 86°
2026-05-07 20:44 41.58640 -89.74626 11298 ft 388 kts 86°
2026-05-07 20:44 41.58742 -89.70984 10718 ft 392 kts 86°
2026-05-07 20:44 41.58843 -89.67344 10710 ft 395 kts 86°
2026-05-07 20:44 41.58942 -89.63682 10709 ft 396 kts 86°
2026-05-07 20:45 41.59041 -89.59991 10707 ft 397 kts 86°
2026-05-07 20:45 41.59138 -89.56345 10707 ft 398 kts 86°
2026-05-07 20:45 41.59236 -89.52648 10710 ft 398 kts 86°
2026-05-07 20:45 41.59333 -89.48902 10709 ft 398 kts 86°
2026-05-07 20:46 41.59425 -89.45257 10713 ft 398 kts 86°
2026-05-07 20:46 41.59518 -89.41570 10714 ft 398 kts 86°
2026-05-07 20:46 41.59611 -89.37867 10713 ft 398 kts 86°
2026-05-07 20:46 41.59702 -89.34175 10716 ft 398 kts 86°
2026-05-07 20:47 41.59792 -89.30482 10720 ft 398 kts 86°
2026-05-07 20:47 41.59880 -89.26787 10718 ft 398 kts 86°
2026-05-07 20:47 41.59968 -89.23092 10716 ft 398 kts 86°
2026-05-07 20:47 41.60055 -89.19386 10716 ft 399 kts 86°
2026-05-07 20:48 41.60140 -89.15676 10715 ft 399 kts 86°
2026-05-07 20:48 41.60224 -89.11967 10716 ft 399 kts 86°
2026-05-07 20:48 41.60308 -89.08259 10709 ft 398 kts 86°
2026-05-07 20:48 41.60389 -89.04562 10722 ft 398 kts 86°
2026-05-07 20:49 41.60469 -89.00867 10718 ft 399 kts 86°
2026-05-07 20:49 41.60549 -88.97159 10717 ft 399 kts 86°
2026-05-07 20:49 41.60627 -88.93452 10717 ft 399 kts 87°
2026-05-07 20:49 41.60704 -88.89765 10721 ft 398 kts 87°
2026-05-07 20:50 41.60779 -88.86087 10722 ft 399 kts 87°
2026-05-07 20:50 41.60854 -88.82341 10724 ft 397 kts 87°
2026-05-07 20:50 41.60927 -88.78700 10722 ft 397 kts 87°
2026-05-07 20:50 41.60999 -88.75009 10723 ft 398 kts 87°
2026-05-07 20:51 41.61069 -88.71324 10688 ft 390 kts 87°
2026-05-07 20:51 41.61135 -88.67774 10554 ft 382 kts 87°
2026-05-07 20:51 41.61302 -88.64241 10387 ft 377 kts 78°
2026-05-07 20:51 41.62155 -88.61120 10164 ft 341 kts 57°
2026-05-07 20:52 41.63491 -88.58718 9987 ft 308 kts 39°
2026-05-07 20:52 41.65022 -88.56815 9852 ft 297 kts 36°
2026-05-07 20:52 41.66546 -88.54932 9724 ft 300 kts 36°
2026-05-07 20:52 41.68073 -88.53028 9597 ft 301 kts 37°
2026-05-07 20:53 41.69610 -88.51117 9467 ft 302 kts 37°
2026-05-07 20:53 41.70603 -88.49809 9359 ft 305 kts 42°
2026-05-07 20:53 41.71595 -88.47248 9093 ft 317 kts 71°
2026-05-07 20:53 41.71738 -88.44322 8881 ft 317 kts 97°
2026-05-07 20:54 41.71273 -88.41466 8763 ft 313 kts 104°
2026-05-07 20:54 41.70743 -88.38634 8687 ft 314 kts 105°
2026-05-07 20:54 41.70222 -88.35797 8580 ft 314 kts 104°
2026-05-07 20:54 41.69719 -88.32961 8463 ft 313 kts 104°
2026-05-07 20:55 41.69207 -88.30099 7995 ft 318 kts 104°
2026-05-07 20:55 41.68689 -88.27243 7487 ft 313 kts 104°
2026-05-07 20:55 41.68093 -88.24503 6939 ft 302 kts 115°
2026-05-07 20:55 41.66958 -88.22219 6383 ft 291 kts 136°
2026-05-07 20:56 41.65420 -88.20565 5822 ft 279 kts 154°
2026-05-07 20:56 41.63664 -88.19627 5284 ft 266 kts 171°
2026-05-07 20:56 41.61898 -88.19393 4760 ft 236 kts 187°
2026-05-07 20:56 41.60389 -88.19716 4201 ft 214 kts 201°
2026-05-07 20:57 41.59053 -88.20541 3676 ft 209 kts 218°
2026-05-07 20:57 41.57956 -88.21804 3165 ft 207 kts 232°
2026-05-07 20:57 41.57192 -88.23353 3014 ft 198 kts 246°
2026-05-07 20:57 41.56748 -88.25085 3023 ft 195 kts 259°
2026-05-07 20:58 41.56657 -88.26880 3025 ft 196 kts 272°
2026-05-07 20:58 41.56923 -88.28712 3020 ft 200 kts 286°
2026-05-07 20:58 41.57528 -88.30359 3011 ft 202 kts 300°
2026-05-07 20:58 41.58472 -88.31791 3013 ft 211 kts 314°
2026-05-07 20:59 41.59716 -88.32859 3004 ft 214 kts 331°
2026-05-07 20:59 41.61163 -88.33426 3009 ft 219 kts 346°
2026-05-07 20:59 41.62711 -88.33415 3005 ft 228 kts
2026-05-07 20:59 41.64274 -88.32984 2996 ft 231 kts
2026-05-07 21:00 41.65850 -88.32567 2997 ft 229 kts
2026-05-07 21:00 41.67423 -88.32157 2995 ft 233 kts
2026-05-07 21:00 41.68985 -88.31736 2987 ft 229 kts
2026-05-07 21:00 41.70545 -88.31211 2983 ft 233 kts
2026-05-07 21:01 41.72106 -88.30700 2989 ft 230 kts
2026-05-07 21:01 41.73680 -88.30213 2930 ft 233 kts
2026-05-07 21:01 41.75255 -88.29695 2727 ft 234 kts
2026-05-07 21:01 41.76803 -88.29170 2516 ft 227 kts
2026-05-07 21:02 41.78318 -88.28661 2377 ft 220 kts 10°
2026-05-07 21:02 41.79815 -88.28163 2366 ft 213 kts
2026-05-07 21:02 41.81138 -88.27704 2320 ft 185 kts
2026-05-07 21:02 41.82240 -88.27250 2109 ft 150 kts
2026-05-07 21:03 41.83202 -88.26866 1677 ft 145 kts
2026-05-07 21:03 41.84167 -88.26541 1501 ft 141 kts
2026-05-07 21:03 41.85198 -88.26224 1504 ft 158 kts
2026-05-07 21:03 41.86240 -88.25927 1589 ft 146 kts
2026-05-07 21:04 41.87189 -88.25655 1419 ft 131 kts
2026-05-07 21:04 41.88141 -88.25398 1108 ft 145 kts
2026-05-07 21:04 41.89098 -88.25073 830 ft 142 kts
2026-05-07 21:04 41.89971 -88.24802 763 ft 107 kts 11°
2026-05-07 21:05 41.90501 -88.24600 761 ft 54 kts 18°
2026-05-07 21:05 41.90762 -88.24510 757 ft 33 kts 11°
2026-05-07 21:05 41.90954 -88.24454 756 ft 21 kts 14°
2026-05-07 21:05 41.91049 -88.24501 753 ft 10 kts 284°
2026-05-07 21:06 41.91050 -88.24512 754 ft 0 kts 278°